| time (UTC) | temp C | wind direction | speed KPH | gust KPH | rain 1hr cm | rain 24hr cm | rain mn cm | humidity % | barometer mb |
| 20260504032530 | 5 | 187 | 0.0 | 1.6 | 0.00 | 0.00 | 0.00 | 96 | 1005.3 |
| 20260504031525 | 5 | 192 | 0.0 | 1.6 | 0.00 | 0.00 | 0.00 | 96 | 1005.3 |
| 20260504030520 | 5 | 185 | 0.0 | 1.6 | 0.00 | 0.00 | 0.00 | 96 | 1005.4 |
| 20260504025516 | 5 | 192 | 0.0 | 1.6 | 0.00 | 0.00 | 0.00 | 96 | 1005.5 |
| 20260504024531 | 5 | 190 | 0.0 | 3.2 | 0.00 | 0.00 | 0.00 | 96 | 1005.6 |
| 20260504023526 | 5 | 186 | 0.0 | 4.8 | 0.00 | 0.00 | 0.00 | 96 | 1005.6 |
| 20260504022521 | 5 | 185 | 0.0 | 3.2 | 0.00 | 0.00 | 0.00 | 96 | 1005.7 |
| 20260504021538 | 4 | 193 | 0.0 | 1.6 | 0.00 | 0.00 | 0.00 | 96 | 1005.8 |
| 20260504020532 | 4 | 0.0 | 0.0 | 0.00 | 0.00 | 0.00 | 96 | 1006.0 | |
| 20260504015548 | 4 | 186 | 0.0 | 1.6 | 0.00 | 0.00 | 0.00 | 96 | 1006.2 |
| 20260504014523 | 4 | 195 | 0.0 | 1.6 | 0.00 | 0.00 | 0.00 | 97 | 1006.3 |
| 20260504013518 | 4 | 0.0 | 0.0 | 0.00 | 0.00 | 0.00 | 97 | 1006.3 | |
| 20260504012534 | 4 | 179 | 0.0 | 3.2 | 0.00 | 0.00 | 0.00 | 97 | 1006.4 |
| 20260504011529 | 3 | 0.0 | 0.0 | 0.00 | 0.00 | 0.00 | 96 | 1006.5 | |
| 20260504010544 | 4 | 0.0 | 0.0 | 0.00 | 0.00 | 0.00 | 95 | 1006.6 | |
| 20260504005519 | 4 | 0.0 | 0.0 | 0.00 | 0.00 | 0.00 | 95 | 1006.6 | |
| 20260504004535 | 4 | 158 | 0.0 | 1.6 | 0.00 | 0.00 | 0.00 | 95 | 1006.7 |
| 20260504003550 | 5 | 0.0 | 0.0 | 0.00 | 0.00 | 0.00 | 95 | 1006.8 | |
| 20260504002526 | 4 | 173 | 0.0 | 1.6 | 0.00 | 0.00 | 0.00 | 95 | 1006.8 |
| 20260504001521 | 4 | 0.0 | 0.0 | 0.00 | 0.03 | 0.00 | 96 | 1007.1 | |
| 20260504000516 | 4 | 0.0 | 0.0 | 0.00 | 0.03 | 0.00 | 97 | 1007.3 | |
| 20260503235651 | 3 | 0.0 | 0.0 | 0.00 | 0.03 | 0.00 | 98 | 1007.3 | |
| 20260503234526 | 3 | 193 | 0.0 | 1.6 | 0.00 | 0.05 | 0.00 | 98 | 1007.4 |
| 20260503233522 | 3 | 0.0 | 0.0 | 0.00 | 0.08 | 0.00 | 98 | 1007.3 | |
| 20260503232517 | 3 | 0.0 | 0.0 | 0.00 | 0.10 | 0.00 | 97 | 1007.5 | |
| 20260503231553 | 3 | 0.0 | 0.0 | 0.00 | 0.10 | 0.00 | 97 | 1007.5 | |
| 20260503230528 | 3 | 0.0 | 0.0 | 0.00 | 0.10 | 0.00 | 97 | 1007.5 | |
| 20260503225524 | 3 | 0.0 | 0.0 | 0.00 | 0.10 | 0.00 | 97 | 1007.6 | |
| 20260503224519 | 2 | 0.0 | 0.0 | 0.00 | 0.10 | 0.00 | 97 | 1007.8 | |
| 20260503223534 | 3 | 0.0 | 0.0 | 0.00 | 0.10 | 0.00 | 96 | 1007.8 | |
| 20260503222530 | 3 | 0.0 | 0.0 | 0.00 | 0.10 | 0.00 | 96 | 1007.7 | |
| 20260503221545 | 3 | 182 | 0.0 | 1.6 | 0.00 | 0.10 | 0.00 | 96 | 1007.7 |
| 20260503220520 | 3 | 0.0 | 0.0 | 0.00 | 0.10 | 0.00 | 96 | 1008.0 | |
| 20260503215535 | 3 | 0.0 | 0.0 | 0.00 | 0.10 | 0.10 | 96 | 1008.2 | |
| 20260503214531 | 2 | 0.0 | 0.0 | 0.00 | 0.10 | 0.10 | 94 | 1008.0 | |
| 20260503213526 | 3 | 0.0 | 0.0 | 0.00 | 0.10 | 0.10 | 94 | 1008.2 | |
| 20260503212521 | 3 | 0.0 | 0.0 | 0.00 | 0.10 | 0.10 | 94 | 1008.2 | |
| 20260503211516 | 3 | 0.0 | 0.0 | 0.00 | 0.10 | 0.10 | 92 | 1008.3 | |
| 20260503210533 | 4 | 0.0 | 0.0 | 0.00 | 0.10 | 0.10 | 91 | 1008.5 | |
| 20260503205528 | 4 | 0.0 | 0.0 | 0.00 | 0.13 | 0.10 | 90 | 1008.6 | |
| 20260503204524 | 5 | 0.0 | 0.0 | 0.00 | 0.13 | 0.10 | 88 | 1008.7 | |
| 20260503203518 | 5 | 176 | 1.6 | 1.6 | 0.00 | 0.13 | 0.10 | 87 | 1008.6 |
| 20260503202533 | 5 | 182 | 0.0 | 1.6 | 0.00 | 0.15 | 0.10 | 88 | 1008.7 |
| 20260503201529 | 5 | 183 | 0.0 | 1.6 | 0.00 | 0.15 | 0.10 | 86 | 1008.6 |
| 20260503200545 | 6 | 178 | 1.6 | 1.6 | 0.00 | 0.15 | 0.10 | 85 | 1008.7 |
| 20260503195519 | 6 | 178 | 0.0 | 1.6 | 0.00 | 0.15 | 0.10 | 83 | 1008.9 |
| 20260503194554 | 6 | 180 | 1.6 | 3.2 | 0.00 | 0.15 | 0.10 | 82 | 1009.0 |
| 20260503193550 | 6 | 185 | 0.0 | 1.6 | 0.00 | 0.15 | 0.10 | 82 | 1009.0 |
| 20260503192524 | 6 | 180 | 0.0 | 1.6 | 0.00 | 0.15 | 0.10 | 81 | 1009.0 |
| 20260503191519 | 7 | 187 | 1.6 | 6.4 | 0.00 | 0.15 | 0.10 | 81 | 1009.1 |
| 20260503190535 | 7 | 191 | 1.6 | 3.2 | 0.00 | 0.15 | 0.10 | 80 | 1009.2 |
| 20260503185530 | 7 | 195 | 0.0 | 1.6 | 0.00 | 0.15 | 0.10 | 79 | 1009.2 |
| 20260503184526 | 7 | 200 | 3.2 | 9.7 | 0.00 | 0.15 | 0.10 | 78 | 1009.1 |
| 20260503183522 | 7 | 199 | 3.2 | 6.4 | 0.00 | 0.15 | 0.10 | 78 | 1008.9 |
| 20260503182517 | 7 | 196 | 3.2 | 4.8 | 0.00 | 0.15 | 0.10 | 77 | 1009.1 |
| 20260503181532 | 7 | 186 | 3.2 | 6.4 | 0.00 | 0.15 | 0.10 | 76 | 1009.1 |
| 20260503180528 | 7 | 193 | 3.2 | 6.4 | 0.00 | 0.15 | 0.10 | 75 | 1009.0 |
| 20260503175523 | 8 | 199 | 3.2 | 4.8 | 0.00 | 0.15 | 0.10 | 74 | 1009.0 |
| 20260503174518 | 8 | 183 | 4.8 | 12.9 | 0.00 | 0.15 | 0.10 | 72 | 1009.1 |
| 20260503173553 | 8 | 196 | 4.8 | 11.3 | 0.00 | 0.15 | 0.10 | 70 | 1009.0 |
| 20260503172528 | 8 | 189 | 3.2 | 4.8 | 0.00 | 0.15 | 0.10 | 69 | 1008.9 |
| 20260503171545 | 9 | 202 | 4.8 | 9.7 | 0.00 | 0.15 | 0.10 | 67 | 1008.8 |
| 20260503170604 | 9 | 196 | 4.8 | 6.4 | 0.00 | 0.15 | 0.10 | 66 | 1008.8 |
| 20260503150523 | 10 | 190 | 3.2 | 4.8 | 0.00 | 0.15 | 0.10 | 59 | 1009.9 |
| 20260503130527 | 8 | 113 | 3.2 | 11.3 | 0.00 | 0.15 | 0.10 | 57 | 1010.9 |
| 20260503110530 | 6 | 234 | 3.2 | 6.4 | 0.00 | 0.15 | 0.10 | 61 | 1012.0 |
| 20260503081529 | 5 | 201 | 1.6 | 4.8 | 0.00 | 0.15 | 0.10 | 67 | 1012.6 |
| 20260503080544 | 5 | 31 | 3.2 | 6.4 | 0.00 | 0.15 | 0.10 | 69 | 1012.7 |
| 20260503072525 | 5 | 237 | 1.6 | 4.8 | 0.00 | 0.15 | 0.10 | 71 | 1012.5 |
| 20260503071519 | 5 | 230 | 1.6 | 11.3 | 0.00 | 0.15 | 0.10 | 71 | 1012.6 |
| 20260503070535 | 5 | 250 | 3.2 | 9.7 | 0.00 | 0.15 | 0.10 | 72 | 1012.3 |
| 20260503054518 | 5 | 232 | 3.2 | 6.4 | 0.00 | 0.15 | 0.10 | 75 | 1012.0 |
| 20260503053614 | 5 | 152 | 1.6 | 6.4 | 0.00 | 0.15 | 0.10 | 76 | 1011.9 |
| 20260503052529 | 4 | 207 | 1.6 | 6.4 | 0.00 | 0.15 | 0.10 | 77 | 1012.0 |
| 20260503051525 | 4 | 180 | 1.6 | 6.4 | 0.00 | 0.15 | 0.10 | 77 | 1012.0 |
| 20260503050520 | 4 | 228 | 1.6 | 3.2 | 0.00 | 0.15 | 0.10 | 78 | 1012.0 |
| 20260503045536 | 4 | 224 | 1.6 | 9.7 | 0.00 | 0.15 | 0.10 | 78 | 1011.9 |
| 20260503044531 | 5 | 222 | 3.2 | 9.7 | 0.00 | 0.15 | 0.10 | 77 | 1012.0 |
| 20260503043527 | 5 | 242 | 1.6 | 6.4 | 0.00 | 0.15 | 0.10 | 77 | 1011.9 |
| 20260503042522 | 5 | 221 | 1.6 | 4.8 | 0.00 | 0.15 | 0.10 | 77 | 1011.7 |
| 20260503041517 | 5 | 160 | 1.6 | 6.4 | 0.00 | 0.15 | 0.10 | 77 | 1011.6 |
| 20260503040533 | 5 | 216 | 1.6 | 6.4 | 0.00 | 0.15 | 0.10 | 78 | 1011.6 |
| 20260503035548 | 5 | 207 | 1.6 | 4.8 | 0.00 | 0.15 | 0.10 | 79 | 1011.4 |
| 20260503034523 | 5 | 237 | 1.6 | 6.4 | 0.00 | 0.15 | 0.10 | 80 | 1011.3 |
| 20260503033518 | 5 | 233 | 1.6 | 3.2 | 0.00 | 0.15 | 0.10 | 81 | 1011.2 |